Weather Roundup
Issued by NWS Chicago, IL

Home | Current Version | Previous Version | Graphics & Text | Print | Product List | Glossary On
Versions: 1 2 3 4 5 6 7 8 9 10 11 12 13 14 15 16 17 18 19 20 21 22 23 24 25 26 27 28 29 30 31 32 33 34 35 36 37 38 39 40 41 42 43 44 45 46 47 48 49 50
000
NZUS59 KLOT 201706
HRRLOT

CHICAGO AREA WEATHER ROUNDUP
NATIONAL WEATHER SERVICE CHICAGO/ROMEOVILLE IL
1200 PM CDT SUN APR 20 2014

NOTE: "FAIR" INDICATES FEW OR NO CLOUDS BELOW 12,000 FEET WITH NO
SIGNIFICANT WEATHER AND/OR OBSTRUCTIONS TO VISIBILITY.

* THESE STATIONS ARE NOT UNDER NWS QUALITY CONTROL. THEY ALSO MAY NOT
  REPORT WEATHER SUCH AS PRECIPITATION OR FOG.

ILZ005-006-012>014-019>023-201800-
NORTHEAST ILLINOIS

CITY           SKY/WX    TMP DP  RH WIND       PRES   REMARKS
OHARE          PTSUNNY   71  37  28 S13       30.17F
MIDWAY         PTSUNNY   70  38  31 S14       30.18F
AURORA         SUNNY     71  41  33 S13       30.17F
LANSING*       SUNNY     70  36  29 SW12      30.20F
JOLIET*        SUNNY     71  38  31 S8        30.18F
WAUKEGAN       MOSUNNY   66  39  37 SE9       30.16F
DUPAGE AIRPORT SUNNY     71  39  31 SW15      30.17F
WHEELING       SUNNY     70  37  29 S12       30.18F
KANKAKEE*      SUNNY     73  41  31 S10G16    30.20F
MORRIS*        SUNNY     74  29  19 S16G24    30.16F
NORTHERLY IS     N/A     68  34  28 S10         N/A
$$

WIZ051-052-058>065-066-070>072-201800-
SOUTHEAST WISCONSIN

CITY           SKY/WX    TMP DP  RH WIND       PRES   REMARKS
MILWAUKEE      PTSUNNY   70  38  31 S15       30.15F
KENOSHA*       MOSUNNY   71  40  32 SW12      30.15F
RACINE*        MOSUNNY   59  36  42 SE10      30.18F
BURLINGTON     MOSUNNY   71  39  31 SW17      30.15F
WAUKESHA       MOSUNNY   66  37  34 SW9G16    30.16F
$$

INZ001>003-010>013-019-020-201800-
NORTHWEST INDIANA

CITY           SKY/WX    TMP DP  RH WIND       PRES   REMARKS
GARY*          MOSUNNY   70  34  26 SE12      30.20F
MICHIGAN CITY* NOT AVBL
RENSSELAER*    NOT AVBL
VALPARAISO     SUNNY     68  34  28 S8        30.22F
$$

LMZ740>746-201800-
SOUTHERN LAKE MICHIGAN

STATION/POSITION TIME  SKY/WX   TEMP WIND        PRES    VSBY
                                AIR  DIR/SP/G
                 (UTC)          (F)  (DEG/KT/KT) (MB)    (MI)
HARRISON CRIB    1700            59  150/ 12/ 14   N/A
BURNHAM HARBOR   1700            68  190/ 10/ 12   N/A
CALUMET HARBOR   1700            66  190/  8/ 14 1023.1F
BURNS HARBOR     NOT AVBL
MICHIGAN CITY    1700            65  180/ 12/ 15   N/A
$$

ABBREVIATIONS USED IN REMARKS
   TC - TEMPERATURE IN CELSIUS
  WCI - WIND CHILL INDEX
   HX - HEAT INDEX
  VSB - VISIBILITY
$$



USA.gov is the U.S. government's official web portal to all federal, state and local government web resources and services.